Starlink 1843

operational
NORAD ID: 47133 Int'l Des: 2020-088 Owner: SPXS Country: US Constellation: starlink
LEOCIRCULARSTARLINK_TYPE

Über Starlink 1843

Beschreibung wird geladen...

Live-Position

3D-Globus wird geladen...

Nächste Überflüge

Höhenverlauf

Altitude vs Time

uPlot chart will show altitude changes over time

Zweizeiliger Elementsatz

1 47133U 20088M 25304.00002315 .01833846 00000-0 67238-1 0 9991
2 47133 53.0559 153.2070 0001843 96.5224 341.6688 15.24372016 5809
Epoch: 31. Okt. 2025 • Age: 9 hours

Aktueller Status

Höhe 488.6 km
Geschwindigkeit 7.62 km/s
Subsatellitenpunkt 16.60°N, 13.42°W
Startdatum 25. Nov. 2020
Alter 4.9 years
Typ internet

Technische Details

Klassifizierung Payload
Masse 260.00 kg
Trockenmasse 248.00 kg
Gesamtmasse 260.00 kg
Länge 0.20 m
Durchmesser 2.80 m
Spannweite 9.00 m
Form Box + pan
Hersteller SPXS
Bus-Typ Starlink
Phasenstatus In Orbit
Besitzer/Staat SPXS/US

Große Konstellationen

Loading constellations...